Location: Finkenbach
(49.5340°N, 8.9188°E)
Time: 15:29:30
(UTC+00:00)

Cosmos 1844 Rocket - Pass Details

Date: 17 June 2025
Orbit: 823 x 844 km, 71.0° (Epoch: 19 July)

Event Time Altitude Azimuth Distance (km) Brightness Sun altitude
Exits shadow 22:01:33 20° 182° (S) 1,872 3.9 -14.7°
Maximum altitude 22:05:24 55° 111° (ESE) 1,011 2.9 -14.9°
Drops below altitude 10° 22:10:55 10° 36° (NE) 2,475 5.6 -15.2°
Sets 22:13:25 0° 32° (NNE) 3,414 6.5 -15.3°
